Victorville, CA

8:55 PM PST on February 07, 2016 (GMT -0800)
Southern California Logistics

Weather History for KVCV - October, 2011

Change the Weather History Date:

Thursday, October 6, 2011

  Actual Average (KSBD) Record (KSBD)
Temperature  
Mean Temperature 52 °F -  
Max Temperature 62 °F 85 °F 91 °F (2013)
Min Temperature 42 °F 55 °F 50 °F (2011)
Degree Days  
Heating Degree Days 13    
Growing Degree Days 2 (Base 50)    
Moisture  
Dew Point 34 °F    
Average Humidity 54    
Maximum Humidity 76    
Minimum Humidity 26    
Precipitation  
Precipitation 0.00 in - - ()
Sea Level Pressure  
Sea Level Pressure 29.86 in    
Wind  
Wind Speed 11 mph (WSW)    
Max Wind Speed 21 mph    
Max Gust Speed 26 mph    
Visibility 10 miles    
Events      
Averages and records for this station are not official NWS values.
T = Trace of Precipitation, MM = Missing Value Source: NWS Daily Summary

Daily Weather History Graph

Daily Weather History Graph

Search for Another Location

Airport or City:

Trip Planner

Search our weather history database for the weather conditions in past years. The results will help you decide how hot, cold, wet, or windy it might be!

Date:

Astronomy

Oct. 06, 2011 Rise Set
Actual Time 6:47 AM PDT 6:26 PM PDT
Civil Twilight 6:22 AM PDT 6:52 PM PDT
Nautical Twilight 5:53 AM PDT 7:21 PM PDT
Astronomical Twilight 5:24 AM PDT 7:50 PM PDT
Moon 3:32 PM PDT (10/6) 1:53 AM PDT (10/6)
Length of Visible Light 12h 29m
Length of Day
11h 39m
Waxing Gibbous, 76% of the Moon is Illuminated
Oct 6
Waxing Gibbous
Oct 11
Full
Oct 19
Last Quarter
Oct 26
New
Nov 2
First Quarter

Hourly Weather History & Observations

Time (PDT) Temp. Windchill Dew Point Humidity Pressure Visibility Wind Dir Wind Speed Gust Speed Precip Events Conditions
12:15 AM 46.4 °F 41.5 °F 39.2 °F 76% 29.82 in 10.0 mi West 10.4 mph - N/A   Clear
12:35 AM 46.4 °F 41.1 °F 39.2 °F 76% 29.82 in 10.0 mi WSW 11.5 mph - N/A   Clear
12:55 AM 46.4 °F 40.1 °F 39.2 °F 76% 29.81 in 10.0 mi WSW 15.0 mph - N/A   Scattered Clouds
1:15 AM 46.4 °F 40.4 °F 39.2 °F 76% 29.82 in 10.0 mi WSW 13.8 mph - N/A   Clear
1:35 AM 44.6 °F 39.7 °F 37.4 °F 76% 29.82 in 10.0 mi WSW 9.2 mph - N/A   Clear
1:55 AM 44.6 °F 41.4 °F 37.4 °F 76% 29.83 in 10.0 mi WSW 5.8 mph - N/A   Clear
2:15 AM 44.6 °F 39.7 °F 37.4 °F 76% 29.83 in 10.0 mi WSW 9.2 mph - N/A   Clear
2:35 AM 44.6 °F 38.1 °F 37.4 °F 76% 29.82 in 10.0 mi WSW 13.8 mph - N/A   Clear
2:55 AM 44.6 °F 39.7 °F 37.4 °F 76% 29.83 in 10.0 mi West 9.2 mph - N/A   Clear
3:15 AM 46.4 °F 44.3 °F 37.4 °F 71% 29.84 in 10.0 mi SW 4.6 mph - N/A   Scattered Clouds
3:35 AM 46.4 °F 42.9 °F 37.4 °F 71% 29.84 in 10.0 mi SSW 6.9 mph - N/A   Scattered Clouds
3:55 AM 46.4 °F 41.9 °F 37.4 °F 71% 29.84 in 10.0 mi WSW 9.2 mph - N/A   Scattered Clouds
4:15 AM 46.4 °F 41.1 °F 37.4 °F 71% 29.84 in 10.0 mi West 11.5 mph 18.4 mph N/A   Scattered Clouds
4:35 AM 44.6 °F 38.4 °F 37.4 °F 76% 29.83 in 10.0 mi West 12.7 mph - N/A   Clear
4:55 AM 44.6 °F 37.8 °F 35.6 °F 71% 29.83 in 10.0 mi WSW 15.0 mph 20.7 mph N/A   Clear
5:15 AM 44.6 °F 41.4 °F 35.6 °F 71% 29.84 in 10.0 mi SW 5.8 mph - N/A   Clear
5:35 AM 44.6 °F 41.4 °F 35.6 °F 71% 29.85 in 10.0 mi SSW 5.8 mph - N/A   Clear
5:55 AM 44.6 °F 41.4 °F 35.6 °F 71% 29.85 in 10.0 mi SW 5.8 mph - N/A   Clear
6:15 AM 42.8 °F 39.3 °F 35.6 °F 76% 29.85 in 10.0 mi SW 5.8 mph - N/A   Clear
6:55 AM 44.6 °F 38.8 °F 35.6 °F 71% 29.86 in 10.0 mi West 11.5 mph - N/A   Clear
7:15 AM 44.6 °F 38.4 °F 35.6 °F 71% 29.86 in 10.0 mi WSW 12.7 mph 17.3 mph N/A   Clear
7:35 AM 46.4 °F 42.9 °F 35.6 °F 66% 29.87 in 10.0 mi SW 6.9 mph - N/A   Clear
7:55 AM 46.4 °F 43.5 °F 35.6 °F 66% 29.88 in 10.0 mi SW 5.8 mph - N/A   Clear
9:35 AM 51.8 °F - 35.6 °F 54% 29.90 in 10.0 mi West 15.0 mph - N/A   Clear
9:55 AM 51.8 °F - 35.6 °F 54% 29.90 in 10.0 mi West 12.7 mph 18.4 mph N/A   Clear
10:15 AM 53.6 °F - 35.6 °F 51% 29.90 in 10.0 mi West 12.7 mph 18.4 mph N/A   Clear
10:35 AM 55.4 °F - 35.6 °F 47% 29.90 in 10.0 mi West 15.0 mph 19.6 mph N/A   Clear
10:55 AM 55.4 °F - 35.6 °F 47% 29.89 in 10.0 mi WSW 15.0 mph 18.4 mph N/A   Clear
11:15 AM 55.4 °F - 35.6 °F 47% 29.89 in 10.0 mi West 13.8 mph 20.7 mph N/A   Clear
11:35 AM 57.2 °F - 35.6 °F 44% 29.90 in 10.0 mi West 11.5 mph 17.3 mph N/A   Clear
11:55 AM 57.2 °F - 33.8 °F 41% 29.90 in 10.0 mi WSW 11.5 mph 18.4 mph N/A   Clear
12:15 PM 59.0 °F - 35.6 °F 42% 29.89 in 10.0 mi West 15.0 mph 20.7 mph N/A   Clear
12:35 PM 59.0 °F - 35.6 °F 42% 29.89 in 10.0 mi West 17.3 mph 24.2 mph N/A   Clear
1:15 PM 60.8 °F - 33.8 °F 36% 29.88 in 10.0 mi West 12.7 mph 19.6 mph N/A   Clear
1:35 PM 60.8 °F - 32.0 °F 34% 29.88 in 10.0 mi West 13.8 mph 20.7 mph N/A   Clear
1:55 PM 60.8 °F - 30.2 °F 31% 29.88 in 10.0 mi West 13.8 mph 21.9 mph N/A   Clear
2:15 PM 62.6 °F - 28.4 °F 27% 29.87 in 7.0 mi West 15.0 mph 21.9 mph N/A   Clear
2:35 PM 62.6 °F - 26.6 °F 26% 29.87 in 10.0 mi West 20.7 mph 24.2 mph N/A   Clear
2:55 PM 62.6 °F - 28.4 °F 27% 29.86 in 10.0 mi West 15.0 mph - N/A   Clear
3:15 PM 60.8 °F - 28.4 °F 29% 29.86 in 10.0 mi West 17.3 mph 26.5 mph N/A   Clear
3:35 PM 62.6 °F - 28.4 °F 27% 29.86 in 10.0 mi West 18.4 mph 25.3 mph N/A   Clear
4:15 PM 60.8 °F - 30.2 °F 31% 29.86 in 10.0 mi West 17.3 mph 25.3 mph N/A   Clear
4:35 PM 60.8 °F - 30.2 °F 31% 29.87 in 10.0 mi West 16.1 mph 21.9 mph N/A   Clear
4:55 PM 60.8 °F - 30.2 °F 31% 29.86 in 10.0 mi West 16.1 mph 24.2 mph N/A   Clear
5:15 PM 59.0 °F - 30.2 °F 34% 29.87 in 10.0 mi West 19.6 mph 26.5 mph N/A   Clear
5:35 PM 57.2 °F - 30.2 °F 36% 29.87 in 10.0 mi West 19.6 mph 26.5 mph N/A   Clear
5:55 PM 57.2 °F - 30.2 °F 36% 29.88 in 10.0 mi West 17.3 mph 24.2 mph N/A   Clear
6:15 PM 55.4 °F - 33.8 °F 44% 29.88 in 10.0 mi WNW 11.5 mph 19.6 mph N/A   Clear
6:35 PM 53.6 °F - 33.8 °F 47% 29.89 in 10.0 mi WNW 6.9 mph - N/A   Clear
6:55 PM 53.6 °F - 32.0 °F 44% 29.90 in 10.0 mi WNW 9.2 mph - N/A   Scattered Clouds
7:15 PM 53.6 °F - 33.8 °F 47% 29.91 in 10.0 mi West 4.6 mph - N/A   Scattered Clouds
7:35 PM 53.6 °F - 33.8 °F 47% 29.92 in 10.0 mi West 5.8 mph - N/A   Mostly Cloudy
7:55 PM 51.8 °F - 33.8 °F 50% 29.93 in 10.0 mi WNW 6.9 mph - N/A   Overcast
8:15 PM 51.8 °F - 33.8 °F 50% 29.93 in 10.0 mi West 11.5 mph - N/A   Mostly Cloudy
8:35 PM 51.8 °F - 35.6 °F 54% 29.93 in 10.0 mi West 10.4 mph 19.6 mph N/A   Clear
8:55 PM 50.0 °F - 35.6 °F 58% 29.94 in 10.0 mi West 8.1 mph - N/A   Clear
9:15 PM 50.0 °F - 35.6 °F 58% 29.95 in 10.0 mi West 9.2 mph - N/A   Scattered Clouds
9:35 PM 48.2 °F - 35.6 °F 62% 29.95 in 10.0 mi West 5.8 mph - N/A   Scattered Clouds
9:55 PM 48.2 °F - 35.6 °F 62% 29.95 in 10.0 mi WSW 6.9 mph - N/A   Clear
10:15 PM 46.4 °F 42.4 °F 35.6 °F 66% 29.96 in 10.0 mi WSW 8.1 mph - N/A   Clear
10:35 PM 48.2 °F - 35.6 °F 62% 29.97 in 10.0 mi West 6.9 mph - N/A   Scattered Clouds
10:55 PM 48.2 °F - 35.6 °F 62% 29.98 in 10.0 mi WSW 4.6 mph - N/A   Overcast
11:35 PM 48.2 °F - 35.6 °F 62% 29.99 in 10.0 mi West 11.5 mph - N/A   Overcast
11:55 PM 48.2 °F - 35.6 °F 62% 29.99 in 10.0 mi WSW 11.5 mph - N/A   Scattered Clouds